Monett, MO

12:20 PM CST on December 15, 2019 (GMT -0600)
Monett

Weather History for KHFJ - August, 2019

Change the Weather History Date:

Saturday, August 24, 2019

  Actual Average (WUND) Record (WUND)
Temperature  
Mean Temperature 68 °F -  
Max Temperature 71 °F - - (-1)
Min Temperature 66 °F - - (-1)
Cooling Degree Days 4    
Growing Degree Days 18 (Base 50)    
Moisture  
Dew Point 68 °F    
Average Humidity 97    
Maximum Humidity 100    
Minimum Humidity 88    
Precipitation  
Precipitation 0.49 in - - ()
Sea Level Pressure  
Sea Level Pressure 30.04 in    
Wind  
Wind Speed 8 mph ()    
Max Wind Speed 14 mph    
Max Gust Speed 22 mph    
Visibility 9.5 miles    
Events Rain , Thunderstorm    
Averages and records for this station are not official NWS values.
T = Trace of Precipitation, MM = Missing Value Source: Averaged Metar Reports

Daily Weather History Graph

Daily Weather History Graph

Search for Another Location

Airport or City:

Astronomy

Aug. 24, 2019 Rise Set
Actual Time 6:40 AM CDT 7:55 PM CDT
Civil Twilight 6:13 AM CDT 8:22 PM CDT
Nautical Twilight 5:41 AM CDT 8:55 PM CDT
Astronomical Twilight 5:07 AM CDT 9:28 PM CDT
Moon 12:36 AM CDT (8/24) 3:08 PM CDT (8/24)
Length of Visible Light 14h 09m
Length of Day
13h 15m
Last Quarter, 39% of the Moon is Illuminated
Aug 24
Last Quarter
Aug 30
New
Sep 5
First Quarter
Sep 13
Full
Sep 21
Last Quarter

Hourly Weather History & Observations

Time (CDT) Temp. Dew Point Humidity Pressure Visibility Wind Dir Wind Speed Gust Speed Precip Events Conditions
12:15 AM 71.6 °F 69.8 °F 94% 30.05 in 10.0 mi East 6.9 mph - N/A   Overcast
12:35 AM 71.6 °F 71.6 °F 100% 30.05 in 10.0 mi East 8.1 mph - N/A   Overcast
12:55 AM 71.6 °F 71.6 °F 100% 30.05 in 10.0 mi East 9.2 mph - N/A   Overcast
1:15 AM 69.8 °F 69.8 °F 100% 30.05 in 10.0 mi East 9.2 mph - N/A   Overcast
2:15 AM 69.8 °F 69.8 °F 100% 30.05 in 10.0 mi ESE 8.1 mph - N/A   Mostly Cloudy
2:55 AM 69.8 °F 69.8 °F 100% 30.04 in 10.0 mi ESE 8.1 mph - N/A   Overcast
3:15 AM 69.8 °F 69.8 °F 100% 30.04 in 10.0 mi East 8.1 mph - N/A   Overcast
3:35 AM 69.8 °F 69.8 °F 100% 30.03 in 10.0 mi ESE 10.4 mph 16.1 mph N/A   Drizzle
3:55 AM 69.8 °F 69.8 °F 100% 30.03 in 4.0 mi East 13.8 mph 19.6 mph 0.08 in Rain Rain
4:15 AM 69.8 °F 69.8 °F 100% 30.03 in 10.0 mi ESE 12.7 mph 21.9 mph N/A   Overcast
4:35 AM 69.8 °F 69.8 °F 100% 30.03 in 10.0 mi ESE 10.4 mph - N/A Rain Light Rain
4:55 AM 69.8 °F 69.8 °F 100% 30.04 in 10.0 mi East 6.9 mph - N/A   Overcast
5:15 AM 69.8 °F 69.8 °F 100% 30.04 in 10.0 mi East 9.2 mph - N/A   Overcast
5:35 AM 68.0 °F 68.0 °F 100% 30.05 in 10.0 mi East 6.9 mph - N/A   Overcast
5:55 AM 68.0 °F 68.0 °F 100% 30.05 in 10.0 mi ESE 6.9 mph - N/A Rain Rain
6:15 AM 68.0 °F 68.0 °F 100% 30.05 in 10.0 mi East 8.1 mph - 0.02 in Rain , Thunderstorm Rain
6:35 AM 68.0 °F 68.0 °F 100% 30.05 in 7.0 mi East 9.2 mph - 0.03 in Rain Light Rain
6:55 AM 68.0 °F 68.0 °F 100% 30.05 in 10.0 mi East 6.9 mph - 0.04 in   Drizzle
7:15 AM 68.0 °F 68.0 °F 100% 30.05 in 2.0 mi East 12.7 mph - 0.27 in Rain Heavy Rain
7:35 AM 68.0 °F 68.0 °F 100% 30.05 in 5.0 mi ENE 6.9 mph - 0.36 in Rain Rain
7:55 AM 68.0 °F 68.0 °F 100% 30.05 in 10.0 mi ENE 6.9 mph - 0.37 in   Overcast
8:15 AM 68.0 °F 68.0 °F 100% 30.06 in 10.0 mi ENE 9.2 mph - N/A   Overcast
8:55 AM 68.0 °F 68.0 °F 100% 30.06 in 10.0 mi East 8.1 mph - N/A   Overcast
9:15 AM 66.2 °F 66.2 °F 100% 30.06 in 10.0 mi East 8.1 mph - N/A   Overcast
9:35 AM 66.2 °F 66.2 °F 100% 30.06 in 10.0 mi East 4.6 mph - N/A   Overcast
9:55 AM 66.2 °F 66.2 °F 100% 30.07 in 10.0 mi East 10.4 mph - N/A   Overcast
10:15 AM 66.2 °F 66.2 °F 100% 30.06 in 10.0 mi East 8.1 mph - N/A   Overcast
10:35 AM 68.0 °F 68.0 °F 100% 30.06 in 10.0 mi East 13.8 mph - N/A   Overcast
10:55 AM 68.0 °F 68.0 °F 100% 30.07 in 10.0 mi ESE 10.4 mph - N/A   Overcast
11:15 AM 68.0 °F 66.2 °F 94% 30.07 in 10.0 mi ESE 10.4 mph - N/A   Overcast
11:35 AM 68.0 °F 68.0 °F 100% 30.07 in 10.0 mi ESE 9.2 mph 17.3 mph N/A   Overcast
11:55 AM 68.0 °F 68.0 °F 100% 30.06 in 10.0 mi ESE 9.2 mph 17.3 mph N/A   Overcast
12:15 PM 68.0 °F 66.2 °F 94% 30.06 in 10.0 mi ESE 10.4 mph - N/A   Overcast
12:35 PM 68.0 °F 68.0 °F 100% 30.05 in 10.0 mi ESE 10.4 mph - N/A   Overcast
12:55 PM 68.0 °F 68.0 °F 100% 30.05 in 10.0 mi ESE 12.7 mph 16.1 mph N/A   Overcast
1:15 PM 69.8 °F 68.0 °F 94% 30.05 in 10.0 mi ESE 10.4 mph - N/A   Overcast
1:35 PM 71.6 °F 68.0 °F 88% 30.05 in 10.0 mi ESE 11.5 mph - N/A   Overcast
1:55 PM 71.6 °F 68.0 °F 88% 30.05 in 10.0 mi ESE 11.5 mph - N/A   Overcast
2:15 PM 71.6 °F 68.0 °F 88% 30.04 in 10.0 mi ESE 10.4 mph - N/A   Overcast
2:35 PM 71.6 °F 68.0 °F 88% 30.04 in 10.0 mi ESE 8.1 mph - N/A   Overcast
2:55 PM 69.8 °F 68.0 °F 94% 30.03 in 10.0 mi East 9.2 mph - N/A   Overcast
3:15 PM 71.6 °F 68.0 °F 88% 30.03 in 10.0 mi ESE 9.2 mph - N/A   Overcast
3:35 PM 71.6 °F 68.0 °F 88% 30.01 in 10.0 mi East 10.4 mph - N/A   Overcast
3:55 PM 71.6 °F 68.0 °F 88% 30.01 in 10.0 mi East 9.2 mph - N/A   Overcast
4:15 PM 71.6 °F 68.0 °F 88% 30.01 in 10.0 mi ESE 8.1 mph - N/A   Overcast
4:55 PM 71.6 °F 69.8 °F 94% 30.00 in 10.0 mi ESE 6.9 mph - N/A   Mostly Cloudy
5:15 PM 71.6 °F 68.0 °F 88% 30.01 in 10.0 mi ESE 5.8 mph - N/A   Mostly Cloudy
5:35 PM 71.6 °F 68.0 °F 88% 30.01 in 10.0 mi ESE 6.9 mph - N/A   Overcast
5:55 PM 69.8 °F 68.0 °F 94% 30.01 in 10.0 mi ESE 9.2 mph - N/A   Overcast
6:15 PM 69.8 °F 68.0 °F 94% 30.02 in 10.0 mi East 9.2 mph - N/A   Overcast
6:35 PM 69.8 °F 68.0 °F 94% 30.01 in 10.0 mi East 9.2 mph - N/A   Overcast
6:55 PM 69.8 °F 68.0 °F 94% 30.01 in 10.0 mi East 9.2 mph - N/A   Overcast
7:15 PM 69.8 °F 68.0 °F 94% 30.01 in 10.0 mi ESE 9.2 mph - N/A   Overcast
7:35 PM 68.0 °F 68.0 °F 100% 30.02 in 10.0 mi East 9.2 mph - N/A   Overcast
7:55 PM 68.0 °F 68.0 °F 100% 30.02 in 10.0 mi ESE 6.9 mph - N/A   Overcast
8:15 PM 68.0 °F 68.0 °F 100% 30.02 in 10.0 mi ESE 5.8 mph - N/A   Overcast
8:35 PM 68.0 °F 68.0 °F 100% 30.02 in 10.0 mi East 10.4 mph - N/A   Overcast
8:55 PM 68.0 °F 68.0 °F 100% 30.02 in 10.0 mi East 10.4 mph - N/A   Overcast
9:15 PM 68.0 °F 68.0 °F 100% 30.02 in 10.0 mi East 9.2 mph - N/A   Overcast
9:35 PM 68.0 °F 68.0 °F 100% 30.03 in 10.0 mi East 10.4 mph - N/A   Overcast
9:55 PM 68.0 °F 68.0 °F 100% 30.04 in 10.0 mi ESE 9.2 mph 17.3 mph N/A   Overcast
10:15 PM 68.0 °F 68.0 °F 100% 30.04 in 10.0 mi ESE 10.4 mph 16.1 mph N/A   Overcast
10:35 PM 68.0 °F 68.0 °F 100% 30.04 in 10.0 mi ESE 10.4 mph 17.3 mph N/A   Overcast
10:55 PM 68.0 °F 68.0 °F 100% 30.04 in 10.0 mi ESE 11.5 mph 17.3 mph N/A   Overcast
11:15 PM 68.0 °F 68.0 °F 100% 30.04 in 7.0 mi ESE 12.7 mph 19.6 mph N/A   Overcast
11:55 PM 66.2 °F 66.2 °F 100% 30.02 in 5.0 mi ESE 13.8 mph 18.4 mph N/A   Overcast